sat.trackr.live / text

‹ back to catalog

GLOBAL-31

NORAD 63027 · 2025-033B

PAYLOAD ACTIVE UNKNOWN

§ Identity

Operator
Country
US
Launch date
2025-02-18
Launch site
RLLB
Launch vehicle
Mass (kg)
RCS (m²)

External: N2YO · Heavens-Above · Gunter

§ Orbital elements

Epoch: 2026-05-25T02:49:16.530816Z

Period
93.57 min
Inclination
59.0000°
Eccentricity
0.0014291
Mean motion
15.38942201 rev/d
Perigee alt
439.5 km
Apogee alt
459.0 km
Semi-major
6,827.4 km
B*
3.4588e-4
RAAN
49.3978°
Arg perigee
54.6532°
Mean anomaly
305.5878°
Rev number
7,077

§ Raw data

GLOBAL-311 63027U 25033B   26145.11755244  .00013185  00000+0  34588-3 0  99962 63027  59.0000  49.3978 0014291  54.6532 305.5878 15.38942201 70778

JSON: /api/v1/satellites/63027 · /tle

For live sub-satellite position, see the globe view (requires WebGL).

§ Visibility from observer

Set your observer location to see the next 7 days of passes ≥ 10°. The values pass through the URL so the page stays shareable.

No JS? Fill the form by hand. The geolocation button needs JavaScript.

§ Radio — SatNOGS DB

ModeDescriptionDownlinkUplink
FM Telemetry 400.945 MHz

1 transmitter · refreshed weekly from db.satnogs.org